sat.trackr.live / text

‹ back to catalog

STARLINK-4505

NORAD 53556 · 2022-101AF

PAYLOAD ACTIVE UNKNOWN

§ Identity

Operator
Country
US
Launch date
2022-08-19
Launch site
AFETR
Launch vehicle
Mass (kg)
RCS (m²)

Purposes: comms

External: N2YO · Heavens-Above · Gunter

§ Orbital elements

Epoch: 2026-05-25T02:13:30.074880Z

Period
95.44 min
Inclination
53.2174°
Eccentricity
0.0001276
Mean motion
15.08837367 rev/d
Perigee alt
538.9 km
Apogee alt
540.6 km
Semi-major
6,917.9 km
B*
-1.9036e-5
RAAN
81.1320°
Arg perigee
85.4636°
Mean anomaly
274.6502°
Rev number
20,784

§ Raw data

STARLINK-45051 53556U 22101AF  26145.09270920 -.00000591  00000+0 -19036-4 0  99962 53556  53.2174  81.1320 0001276  85.4636 274.6502 15.08837367207846

JSON: /api/v1/satellites/53556 · /tle

For live sub-satellite position, see the globe view (requires WebGL).

§ Visibility from observer

Set your observer location to see the next 7 days of passes ≥ 10°. The values pass through the URL so the page stays shareable.

No JS? Fill the form by hand. The geolocation button needs JavaScript.